Theta_e
329 329 329 327 325 326 323 321 319 318 313 314 313 310 308 307 305 304 302 308 309 310 313 315 319 322 327 331 331 326 324 324 322 320 320 322 323 324 322 321 321 322 323
325 324 323 322 320 321 319 317 315 315 313 312 312 310 309 308 308 306 304 303 311 308 310 314 317 318 321 325 329 330 331 330 326 321 319 319 320 322 320 320 320 319 320
316 316 315 314 315 316 315 314 313 312 312 312 313 311 308 308 308 307 306 305 305 309 310 312 312 314 315 317 322 326 327 329 331 323 321 319 318 319 321 319 318 317 317
313 312 311 311 312 313 313 311 310 310 310 308 306 306 305 306 306 304 305 305 304 303 306 310 310 311 312 314 316 318 322 326 328 329 325 323 320 319 319 319 319 318 317
312 310 308 308 308 307 308 307 305 304 302 301 301 302 304 304 302 304 304 302 301 300 300 307 309 308 309 312 313 314 316 319 323 325 326 326 324 321 320 319 318 319 318
304 303 303 302 303 301 300 300 304 303 299 298 301 302 303 303 301 300 300 302 299 301 300 299 299 300 308 310 312 313 314 314 316 318 323 325 325 324 322 321 320 320 319
298 298 298 298 297 295 295 296 298 298 297 297 296 297 301 299 298 299 299 298 299 300 299 300 299 299 301 308 309 311 314 314 314 313 314 317 319 322 324 325 324 321 320
292 293 291 291 291 290 290 290 290 294 293 292 292 294 293 297 295 299 297 296 294 295 295 293 297 292 295 298 301 307 309 310 311 311 311 311 312 314 317 320 324 323 321
290 290 290 290 289 289 288 287 287 287 286 288 288 291 288 287 289 293 290 289 288 288 288 291 290 291 294 296 299 300 304 305 306 307 308 309 310 311 313 315 317 320 324
288 288 288 288 287 287 286 286 287 286 285 284 286 288 285 284 285 284 285 286 287 287 286 287 287 289 293 294 296 300 300 299 299 301 303 305 307 309 310 311 313 315 317
286 287 286 286 286 286 285 285 284 284 284 283 283 283 283 282 282 279 277 280 283 284 285 286 286 288 291 292 291 295 298 299 298 298 298 300 301 304 307 310 311 312 314
285 285 285 284 284 284 284 284 283 283 283 283 282 282 282 280 279 279 277 278 278 281 284 284 285 286 289 291 294 295 295 295 296 296 296 297 298 300 302 304 308 310 311
282 283 283 282 282 282 283 283 282 281 282 281 281 281 282 282 282 281 279 277 276 279 280 283 284 285 287 288 291 291 292 293 294 294 294 295 297 298 299 301 302 306 308
282 282 282 282 282 282 282 282 281 281 280 280 280 280 280 281 282 281 279 278 276 276 278 278 282 283 284 285 288 290 286 289 291 292 293 294 295 296 297 299 300 300 303
283 282 281 281 281 281 281 281 280 279 279 279 279 279 279 280 280 280 280 279 277 273 274 277 277 282 283 284 285 284 284 287 289 290 291 292 292 294 295 296 298 299 300
282 281 280 280 280 280 279 279 278 278 278 278 279 278 278 279 278 278 278 278 278 275 273 278 278 280 281 282 283 282 282 285 286 287 288 290 291 292 294 295 296 297 298
281 280 280 279 279 278 278 277 277 277 277 277 277 276 277 277 276 276 276 276 276 275 273 275 276 277 277 277 279 279 280 280 282 286 287 288 290 291 292 293 294 295 296
280 279 279 278 278 278 277 277 276 276 276 276 276 276 275 277 274 275 274 274 274 274 272 272 274 274 274 276 276 276 278 280 279 283 287 288 288 288 288 290 291 292 293
278 278 278 277 277 277 276 276 276 276 275 275 276 275 275 275 274 274 272 272 273 274 273 272 271 274 274 274 274 275 276 276 279 281 283 283 284 285 286 287 289 290 291
278 277 277 276 276 276 275 276 276 275 275 276 276 275 275 274 274 273 273 273 274 272 272 272 271 272 273 274 274 273 273 275 275 277 279 280 281 282 284 284 285 285 286
277 277 276 275 275 275 275 275 276 275 275 275 275 276 275 275 277 277 275 273 273 271 271 271 271 271 272 272 272 274 273 273 274 275 275 276 277 277 278 281 281 283 285
276 276 275 275 274 275 278 277 277 276 276 275 274 274 274 275 275 277 277 278 277 273 271 270 272 272 273 273 274 273 273 272 270 276 274 274 277 276 277 278 282 284 284
275 274 274 274 273 274 278 278 278 276 275 274 275 274 274 275 274 274 275 277 277 278 279 276 274 273 273 274 274 274 274 274 273 275 275 273 276 275 277 279 282 283 283
274 273 273 273 273 273 278 278 278 275 274 274 274 274 274 274 274 274 274 274 275 276 276 277 276 275 276 277 277 277 276 275 276 277 278 271 275 274 276 277 281 282 283
272 272 272 270 270 271 277 278 277 274 274 274 275 274 274 274 276 278 276 271 273 273 276 277 278 279 279 278 277 274 271 271 270 272 276 273 273 273 275 275 277 280 282
273 273 272 270 270 268 276 277 277 273 268 272 273 275 277 276 278 279 276 270 269 270 271 272 270 271 273 273 275 274 273 270 270 270 275 273 273 273 271 275 276 276 276
Wind_Speed
6 5 5 5 5 4 4 5 4 4 5 5 4 4 3 2 2 1 1 2 5 8 9 9 9 9 11 12 11 7 6 6 5 0 4 8 9 10 7 6 8 10 10
6 6 5 5 5 5 4 3 4 4 3 4 4 5 6 6 5 4 3 2 1 4 9 12 12 12 11 11 12 13 12 11 5 7 2 5 8 8 8 9 9 10 10
8 8 6 6 5 5 6 6 6 5 5 5 5 5 4 6 6 6 5 4 5 7 9 11 15 16 15 13 12 12 13 14 10 8 8 3 3 6 8 7 7 7 9
10 8 6 6 4 4 5 5 3 3 4 4 4 4 4 4 6 6 5 4 5 5 8 16 16 17 16 17 16 15 14 14 15 12 12 7 7 6 7 7 9 9 9
7 6 4 4 4 4 4 3 4 4 3 4 4 3 2 2 3 3 5 7 7 6 4 11 15 16 19 19 19 18 17 15 15 16 12 11 10 9 9 9 9 11 11
9 6 6 8 6 6 5 5 5 5 4 4 4 3 2 3 3 4 6 6 6 7 6 7 5 5 14 20 21 21 20 19 18 17 16 16 13 14 12 13 12 12 12
9 8 7 7 7 8 7 8 5 7 7 9 4 5 5 6 6 4 5 5 6 7 8 7 5 5 6 18 19 20 20 20 21 20 19 20 19 18 16 18 16 14 12
9 9 8 8 8 7 9 10 9 4 5 9 4 2 4 4 8 6 8 7 9 6 7 10 7 12 9 5 10 20 20 19 20 21 21 20 20 20 19 20 18 16 15
9 9 9 8 8 6 7 7 7 8 5 5 10 4 4 3 4 3 5 6 8 5 7 7 8 11 8 7 8 9 16 19 20 20 19 21 22 21 21 21 20 20 19
8 8 8 8 8 5 8 6 7 6 5 5 4 6 5 1 3 5 5 4 9 7 9 6 9 9 6 5 11 9 14 17 21 21 22 22 22 22 23 22 22 22 22
7 8 8 8 8 6 6 7 7 7 5 4 4 3 3 3 5 2 4 8 5 5 5 8 9 6 7 6 5 6 15 19 21 22 24 24 23 24 23 23 23 22 22
5 7 8 7 7 6 6 5 6 7 5 5 4 5 3 2 3 2 3 6 6 5 8 5 7 7 7 6 6 9 18 23 23 25 26 27 26 25 26 25 23 23 23
4 5 6 6 5 6 6 6 6 6 6 5 5 4 3 3 3 3 3 4 4 4 4 6 5 7 7 7 9 18 20 26 28 29 28 27 28 27 26 25 25 25 23
4 6 6 6 7 7 7 6 5 5 5 5 6 5 3 4 3 3 2 4 7 2 5 4 4 5 8 10 14 22 13 23 28 30 29 28 28 27 26 26 26 25 25
5 6 6 6 7 7 6 6 4 4 5 3 3 4 2 3 3 3 3 2 2 6 10 3 4 9 7 10 13 15 15 22 28 28 29 30 30 29 28 27 27 27 26
6 6 6 6 6 6 6 5 4 3 4 3 2 3 3 2 3 3 3 3 2 4 8 7 9 10 9 10 15 14 15 26 26 29 28 28 30 29 28 28 27 27 27
7 7 6 6 6 4 4 3 3 3 3 2 3 2 3 4 3 4 3 3 3 3 8 15 7 9 13 11 12 14 14 13 12 24 28 30 29 29 28 27 26 26 26
7 7 6 5 5 4 3 3 2 1 1 2 3 3 3 3 4 4 3 4 4 3 5 16 11 10 11 11 12 14 13 11 12 20 26 27 28 27 28 28 29 30 27
7 6 6 6 5 4 3 3 2 1 1 3 3 3 3 4 4 2 2 4 3 6 4 9 13 10 10 9 11 11 12 12 10 21 23 25 28 30 30 30 28 27 25
7 6 5 5 4 4 3 4 3 2 3 4 4 3 4 4 4 3 5 5 6 6 7 8 11 11 10 10 9 11 11 9 12 11 16 19 23 24 24 26 29 26 27
6 6 6 4 4 4 3 4 2 3 4 5 5 4 4 4 10 9 5 3 6 6 7 8 11 11 11 11 12 10 12 12 12 10 11 9 8 9 11 19 21 25 26
6 6 5 5 5 3 8 8 5 3 4 6 5 5 4 5 8 11 13 15 13 9 9 8 11 13 16 13 12 11 13 13 16 8 10 12 10 10 10 9 22 26 26
6 6 6 6 6 5 10 9 9 4 5 5 6 6 6 4 5 6 11 16 16 18 20 16 16 14 18 15 16 16 16 15 16 12 13 14 9 11 9 11 24 27 26
8 6 6 6 6 6 12 10 10 5 6 8 7 7 6 7 6 8 10 10 9 9 10 11 13 16 16 17 16 15 16 17 12 9 8 16 10 11 10 9 23 26 27
6 6 4 7 7 5 12 12 9 4 7 9 8 7 7 8 11 16 10 5 9 10 13 22 24 27 29 31 26 14 12 13 13 10 9 12 11 12 10 11 12 19 17
7 7 6 7 7 7 14 14 11 4 5 7 7 8 12 12 16 16 8 3 9 11 13 11 11 15 16 16 24 14 11 11 10 10 7 8 11 9 8 8 5 11 10
Wind_Direction
58 63 55 46 39 42 36 43 57 44 37 13 17 24 20 37 42 30 17 73 26 1 360 3 5 1 353 351 353 331 318 312 312 291 13 2 349 350 334 339 359 352 347
80 78 71 64 54 44 44 22 40 17 28 10 4 5 346 340 344 351 1 12 18 14 7 359 359 354 352 346 338 339 336 301 261 178 106 23 348 325 334 323 313 343 336
67 73 67 55 42 39 40 30 30 27 14 1 356 360 6 350 339 355 0 12 17 21 4 15 2 352 345 341 337 330 321 322 311 199 192 187 330 319 313 308 309 313 327
67 73 77 78 69 73 69 63 35 46 20 14 354 344 348 351 7 10 356 25 28 16 10 14 7 356 354 347 340 335 330 320 323 304 238 255 215 253 252 283 294 294 298
80 79 70 68 64 48 52 72 64 77 32 353 324 302 305 34 35 10 13 52 42 31 22 10 7 9 1 355 347 338 333 328 322 318 318 289 278 242 260 257 260 276 283
51 53 59 56 42 42 30 16 44 53 41 330 299 310 280 89 54 52 46 50 46 26 20 18 9 351 355 352 348 347 343 334 328 326 312 320 318 272 256 259 257 265 274
51 49 45 51 49 51 32 23 18 49 21 358 17 349 40 81 38 47 72 54 36 26 14 11 352 355 347 348 348 341 341 344 347 340 332 322 319 313 310 282 265 253 260
58 67 60 53 51 52 40 31 30 26 30 23 14 324 18 346 15 20 45 32 27 11 16 349 9 359 339 336 338 348 347 348 348 344 339 332 325 317 307 305 304 258 248
62 65 64 66 60 57 57 39 32 36 37 14 39 79 23 352 333 357 32 25 17 8 2 344 357 345 328 334 348 13 4 360 352 346 345 340 334 326 316 307 302 296 273
71 72 71 65 62 51 51 42 35 41 42 36 14 19 49 71 350 326 353 343 6 348 346 343 343 321 327 333 342 4 12 0 352 346 343 338 331 327 323 316 309 299 291
62 66 73 75 68 60 55 57 39 34 40 59 55 12 11 347 46 333 303 325 329 340 335 335 317 307 318 320 326 2 356 347 342 341 337 332 329 324 318 313 310 303 292
65 63 66 68 77 69 66 58 60 56 52 56 48 38 50 31 353 359 318 315 306 308 324 310 312 327 327 313 321 3 348 340 332 329 329 324 318 317 315 312 305 302 301
78 80 79 76 71 75 69 71 59 48 39 43 44 42 29 19 12 347 307 311 314 305 302 310 326 321 329 354 349 348 338 331 325 322 320 318 316 312 309 308 308 303 296
109 96 82 79 76 65 55 61 59 52 44 45 38 31 12 357 14 4 344 331 317 275 292 310 299 327 342 337 332 333 329 321 318 317 317 314 312 311 308 306 304 303 302
111 101 98 91 81 72 68 81 76 64 47 45 40 25 360 347 8 337 322 314 305 317 311 317 323 341 326 324 321 320 319 316 316 314 313 312 309 306 305 304 302 301 299
117 112 98 86 78 74 65 71 69 58 58 16 44 19 2 339 342 340 336 326 316 273 289 309 310 321 328 328 319 322 317 313 313 310 306 308 309 304 303 302 301 300 298
126 121 114 109 107 103 82 71 83 83 39 6 344 10 334 338 353 337 333 321 319 311 289 298 309 319 313 317 319 316 311 308 305 310 311 305 300 302 301 299 298 298 297
124 132 131 132 132 126 120 131 107 38 14 331 303 328 323 344 330 317 318 313 301 289 284 294 312 314 314 315 310 307 309 307 307 303 316 324 318 320 317 315 314 309 302
143 142 149 152 156 159 168 182 155 258 315 278 284 301 306 317 302 297 327 292 286 297 284 293 302 308 307 310 306 304 302 302 305 309 312 313 310 308 308 304 308 317 307
153 161 159 164 167 179 192 209 205 247 268 268 282 281 275 274 284 307 295 280 294 302 294 291 297 303 303 306 297 303 304 303 303 302 302 301 307 306 312 309 306 314 315
162 161 161 166 183 203 210 197 225 254 268 273 276 268 257 261 287 287 283 271 276 276 282 290 295 298 301 305 303 305 296 301 294 295 294 292 291 294 294 302 300 300 300
159 157 171 183 205 219 225 212 223 242 268 273 272 266 273 267 276 291 297 294 292 291 290 293 289 293 297 297 295 294 293 295 295 276 275 293 289 291 289 287 294 302 305
165 176 186 190 207 218 228 222 238 243 261 263 268 270 273 269 271 272 279 285 286 283 288 296 295 290 294 294 295 291 286 284 284 290 290 291 295 284 290 289 297 299 301
179 175 189 196 207 219 230 227 235 235 252 257 251 253 252 263 257 276 275 271 279 288 294 298 295 300 298 296 294 299 303 299 294 296 283 290 300 294 298 295 295 296 302
173 180 180 193 203 213 230 230 232 234 254 259 257 252 247 254 264 279 285 291 300 301 305 306 303 306 311 310 307 304 295 296 298 295 285 283 295 294 298 298 285 300 310
188 184 194 194 204 216 231 235 232 221 244 255 254 258 253 257 267 284 290 297 308 309 305 312 323 312 311 305 309 305 301 298 306 310 306 290 294 302 300 283 289 317 310